| time (UTC) | temp C | wind direction | speed KPH | gust KPH | rain 1hr cm | rain 24hr cm | rain mn cm | humidity % | barometer mb |
| 20260510094545 | 20 | 144 | 3.2 | 6.4 | 0.00 | 0.03 | 0.00 | 86 | 1009.8 |
| 20260510093049 | 20 | 139 | 1.6 | 4.8 | 0.00 | 0.03 | 0.00 | 85 | 1009.9 |
| 20260510091602 | 20 | 183 | 1.6 | 4.8 | 0.00 | 0.03 | 0.00 | 85 | 1010.1 |
| 20260510090023 | 21 | 158 | 0.0 | 4.8 | 0.00 | 0.03 | 0.00 | 84 | 1009.9 |
| 20260510084544 | 21 | 165 | 0.0 | 3.2 | 0.00 | 0.03 | 0.00 | 84 | 1009.6 |
| 20260510083055 | 21 | 173 | 0.0 | 0.0 | 0.00 | 0.03 | 0.00 | 83 | 1009.7 |
| 20260510081510 | 21 | 160 | 0.0 | 3.2 | 0.00 | 0.03 | 0.00 | 82 | 1009.8 |
| 20260510080029 | 21 | 186 | 0.0 | 3.2 | 0.00 | 0.03 | 0.00 | 80 | 1009.6 |
| 20260510074549 | 22 | 170 | 0.0 | 3.2 | 0.00 | 0.03 | 0.00 | 79 | 1009.3 |
| 20260510073007 | 22 | 172 | 3.2 | 8.0 | 0.00 | 0.03 | 0.00 | 79 | 1009.3 |
| 20260510071524 | 22 | 172 | 3.2 | 8.0 | 0.00 | 0.03 | 0.00 | 79 | 1009.3 |
| 20260510070046 | 22 | 161 | 1.6 | 6.4 | 0.00 | 0.03 | 0.00 | 78 | 1009.3 |
| 20260510064600 | 22 | 159 | 4.8 | 9.7 | 0.00 | 0.03 | 0.00 | 77 | 1009.3 |
| 20260510063017 | 23 | 172 | 3.2 | 9.7 | 0.00 | 0.03 | 0.00 | 76 | 1009.4 |
| 20260510061535 | 23 | 140 | 4.8 | 12.9 | 0.00 | 0.03 | 0.00 | 75 | 1009.5 |
| 20260510060020 | 23 | 193 | 4.8 | 11.3 | 0.00 | 0.03 | 0.00 | 75 | 1009.5 |
| 20260510054537 | 23 | 167 | 4.8 | 11.3 | 0.00 | 0.03 | 0.00 | 74 | 1009.3 |
| 20260510053004 | 24 | 153 | 4.8 | 12.9 | 0.00 | 0.03 | 0.00 | 74 | 1009.2 |
| 20260510051524 | 24 | 164 | 6.4 | 14.5 | 0.00 | 0.03 | 0.00 | 74 | 1009.2 |
| 20260510044508 | 25 | 172 | 6.4 | 14.5 | 0.00 | 0.03 | 0.03 | 74 | 1008.9 |
| 20260510043026 | 25 | 149 | 6.4 | 11.3 | 0.00 | 0.03 | 0.03 | 73 | 1009.0 |
| 20260510041543 | 25 | 181 | 6.4 | 12.9 | 0.00 | 0.03 | 0.03 | 72 | 1008.8 |
| 20260510040104 | 25 | 131 | 6.4 | 11.3 | 0.00 | 0.03 | 0.03 | 72 | 1008.9 |
| 20260510034516 | 25 | 167 | 6.4 | 11.3 | 0.00 | 0.03 | 0.03 | 71 | 1008.6 |
| 20260510033035 | 26 | 219 | 6.4 | 17.7 | 0.00 | 0.03 | 0.03 | 70 | 1008.4 |
| 20260510031558 | 25 | 161 | 6.4 | 16.1 | 0.00 | 0.03 | 0.03 | 71 | 1008.2 |
| 20260510030008 | 25 | 197 | 3.2 | 8.0 | 0.00 | 0.03 | 0.03 | 74 | 1008.1 |
| 20260510024537 | 25 | 134 | 1.6 | 4.8 | 0.00 | 0.03 | 0.03 | 74 | 1008.0 |
| 20260510023004 | 25 | 172 | 0.0 | 1.6 | 0.00 | 0.03 | 0.03 | 74 | 1007.9 |
| 20260510021521 | 25 | 148 | 0.0 | 0.0 | 0.00 | 0.03 | 0.03 | 73 | 1007.7 |
| 20260510020056 | 26 | 224 | 0.0 | 0.0 | 0.00 | 0.03 | 0.03 | 71 | 1007.5 |
| 20260510014510 | 26 | 198 | 0.0 | 0.0 | 0.00 | 0.03 | 0.03 | 69 | 1007.3 |
| 20260510013013 | 27 | 186 | 0.0 | 1.6 | 0.00 | 0.03 | 0.03 | 66 | 1007.0 |
| 20260510011539 | 28 | 176 | 0.0 | 1.6 | 0.00 | 0.03 | 0.03 | 63 | 1006.9 |
| 20260510010045 | 28 | 151 | 0.0 | 3.2 | 0.00 | 0.03 | 0.03 | 61 | 1006.8 |
| 20260510004606 | 29 | 181 | 0.0 | 8.0 | 0.00 | 0.03 | 0.03 | 58 | 1006.7 |
| 20260510003015 | 30 | 175 | 3.2 | 11.3 | 0.00 | 0.03 | 0.03 | 55 | 1006.5 |
| 20260510001552 | 30 | 144 | 6.4 | 11.3 | 0.00 | 0.03 | 0.03 | 50 | 1006.5 |
| 20260510000018 | 31 | 164 | 4.8 | 14.5 | 0.00 | 0.03 | 0.03 | 52 | 1006.4 |
| 20260509234547 | 31 | 177 | 6.4 | 17.7 | 0.00 | 0.03 | 0.03 | 47 | 1006.1 |
| 20260509233007 | 31 | 179 | 4.8 | 12.9 | 0.00 | 0.03 | 0.03 | 50 | 1006.0 |
| 20260509231531 | 31 | 167 | 6.4 | 14.5 | 0.00 | 0.03 | 0.03 | 51 | 1006.1 |
| 20260509230049 | 31 | 153 | 6.4 | 14.5 | 0.00 | 0.03 | 0.03 | 51 | 1006.3 |
| 20260509224508 | 31 | 154 | 3.2 | 11.3 | 0.00 | 0.03 | 0.03 | 52 | 1006.6 |
| 20260509223001 | 32 | 137 | 1.6 | 8.0 | 0.00 | 0.03 | 0.03 | 50 | 1006.4 |
| 20260509221523 | 32 | 181 | 1.6 | 8.0 | 0.00 | 0.03 | 0.03 | 46 | 1006.3 |
| 20260509220057 | 32 | 133 | 0.0 | 3.2 | 0.00 | 0.03 | 0.03 | 46 | 1006.4 |
| 20260509214530 | 32 | 166 | 3.2 | 8.0 | 0.00 | 0.03 | 0.03 | 44 | 1006.6 |
| 20260509213055 | 32 | 131 | 3.2 | 6.4 | 0.00 | 0.03 | 0.03 | 45 | 1006.6 |
| 20260509211507 | 32 | 143 | 1.6 | 8.0 | 0.00 | 0.03 | 0.03 | 48 | 1006.7 |
| 20260509210044 | 31 | 150 | 1.6 | 4.8 | 0.00 | 0.03 | 0.03 | 51 | 1006.9 |
| 20260509204505 | 32 | 143 | 3.2 | 8.0 | 0.00 | 0.03 | 0.03 | 51 | 1007.1 |
| 20260509203032 | 31 | 161 | 1.6 | 11.3 | 0.00 | 0.03 | 0.03 | 52 | 1007.4 |
| 20260509201550 | 31 | 168 | 3.2 | 8.0 | 0.00 | 0.03 | 0.03 | 54 | 1007.6 |
| 20260509200109 | 30 | 142 | 3.2 | 9.7 | 0.00 | 0.03 | 0.03 | 53 | 1007.9 |
| 20260509194509 | 30 | 134 | 0.0 | 9.7 | 0.00 | 0.03 | 0.03 | 62 | 1008.2 |
| 20260509193041 | 30 | 148 | 3.2 | 11.3 | 0.00 | 0.03 | 0.03 | 56 | 1008.4 |
| 20260509191516 | 30 | 164 | 1.6 | 9.7 | 0.00 | 0.03 | 0.03 | 61 | 1008.6 |
| 20260509190040 | 30 | 153 | 3.2 | 11.3 | 0.00 | 0.03 | 0.03 | 60 | 1008.7 |
| 20260509184504 | 30 | 143 | 6.4 | 12.9 | 0.00 | 0.03 | 0.03 | 62 | 1008.7 |
| 20260509183106 | 29 | 130 | 0.0 | 14.5 | 0.00 | 0.03 | 0.03 | 68 | 1009.0 |
| 20260509181509 | 28 | 153 | 3.2 | 8.0 | 0.00 | 0.03 | 0.03 | 68 | 1009.1 |
| 20260509180026 | 28 | 140 | 4.8 | 16.1 | 0.00 | 0.03 | 0.03 | 68 | 1009.4 |
| 20260509174546 | 28 | 150 | 1.6 | 11.3 | 0.00 | 0.03 | 0.03 | 71 | 1009.6 |
| 20260509173005 | 27 | 153 | 6.4 | 12.9 | 0.00 | 0.03 | 0.03 | 72 | 1009.6 |
| 20260509171536 | 27 | 153 | 3.2 | 11.3 | 0.00 | 0.03 | 0.03 | 71 | 1009.8 |
| 20260509170058 | 27 | 135 | 3.2 | 14.5 | 0.00 | 0.03 | 0.03 | 70 | 1009.7 |
| 20260509164526 | 27 | 181 | 4.8 | 11.3 | 0.00 | 0.03 | 0.03 | 75 | 1009.7 |
| 20260509163049 | 26 | 197 | 6.4 | 14.5 | 0.00 | 0.03 | 0.03 | 75 | 1009.6 |
| 20260509161504 | 25 | 171 | 4.8 | 16.1 | 0.00 | 0.03 | 0.03 | 80 | 1009.8 |
| 20260509160020 | 25 | 176 | 6.4 | 16.1 | 0.00 | 0.03 | 0.03 | 81 | 1009.7 |
| 20260509154540 | 25 | 167 | 1.6 | 9.7 | 0.00 | 0.03 | 0.03 | 83 | 1009.8 |
| 20260509153053 | 23 | 144 | 1.6 | 4.8 | 0.00 | 0.03 | 0.03 | 86 | 1010.0 |
| 20260509151504 | 22 | 191 | 1.6 | 6.4 | 0.00 | 0.03 | 0.03 | 87 | 1010.0 |
| 20260509150036 | 21 | 214 | 0.0 | 4.8 | 0.00 | 0.03 | 0.03 | 88 | 1010.0 |
| 20260509144608 | 20 | 165 | 0.0 | 3.2 | 0.00 | 0.03 | 0.03 | 88 | 1010.2 |
| 20260509143025 | 20 | 148 | 0.0 | 4.8 | 0.00 | 0.03 | 0.03 | 88 | 1010.5 |
| 20260509141551 | 20 | 155 | 3.2 | 8.0 | 0.00 | 0.03 | 0.03 | 88 | 1010.8 |
| 20260509140017 | 20 | 164 | 4.8 | 12.9 | 0.03 | 0.03 | 0.03 | 88 | 1010.4 |
| 20260509134556 | 22 | 197 | 3.2 | 11.3 | 0.03 | 0.03 | 0.03 | 87 | 1010.0 |
| 20260509133050 | 22 | 208 | 3.2 | 6.4 | 0.03 | 0.03 | 0.03 | 87 | 1009.4 |
| 20260509131501 | 22 | 207 | 1.6 | 6.4 | 0.03 | 0.03 | 0.03 | 87 | 1009.5 |
| 20260509130020 | 22 | 181 | 1.6 | 8.0 | 0.00 | 0.00 | 0.00 | 87 | 1010.0 |
| 20260509124536 | 22 | 163 | 1.6 | 9.7 | 0.00 | 0.00 | 0.00 | 87 | 1010.2 |
| 20260509123106 | 22 | 155 | 4.8 | 9.7 | 0.00 | 0.00 | 0.00 | 87 | 1010.2 |
| 20260509121520 | 22 | 181 | 1.6 | 4.8 | 0.00 | 0.00 | 0.00 | 87 | 1010.2 |
| 20260509120029 | 21 | 128 | 1.6 | 4.8 | 0.00 | 0.00 | 0.00 | 87 | 1009.8 |
| 20260509114605 | 21 | 175 | 0.0 | 1.6 | 0.00 | 0.00 | 0.00 | 87 | 1009.3 |
| 20260509113034 | 21 | 176 | 0.0 | 1.6 | 0.00 | 0.00 | 0.00 | 87 | 1008.9 |
| 20260509111604 | 22 | 184 | 0.0 | 6.4 | 0.00 | 0.00 | 0.00 | 87 | 1009.1 |
| 20260509110005 | 21 | 188 | 0.0 | 4.8 | 0.00 | 0.00 | 0.00 | 87 | 1008.8 |
| 20260509104537 | 22 | 182 | 1.6 | 6.4 | 0.00 | 0.00 | 0.00 | 87 | 1008.7 |
| 20260509103045 | 22 | 166 | 1.6 | 6.4 | 0.00 | 0.00 | 0.00 | 87 | 1009.1 |
| 20260509101622 | 21 | 171 | 1.6 | 6.4 | 0.00 | 0.00 | 0.00 | 87 | 1009.3 |
| 20260509100008 | 21 | 155 | 1.6 | 4.8 | 0.00 | 0.00 | 0.00 | 87 | 1009.1 |